timestamp,surface_pressure_avg,surface_temp_avg,battery_voltage,lat,long
2023-06-21 00:09:00+00:00,333.5812,6.4,13.13,47.84626,-54.09684
2023-06-21 00:19:00+00:00,338.5447,6.4,12.89,47.84626,-54.09684
2023-06-21 00:29:00+00:00,342.4363,6.4,12.89,47.84626,-54.09684
2023-06-21 00:39:00+00:00,341.5113,6.31,12.89,47.84626,-54.09684
2023-06-21 00:49:00+00:00,343.658,6.34,12.89,47.84626,-54.09684
2023-06-21 00:59:00+00:00,348.1813,6.1,12.89,47.84626,-54.09684
2023-06-21 01:09:00+00:00,350.5862,6.09,12.89,47.84626,-54.09684
2023-06-21 01:19:00+00:00,348.9346,6.2,12.73,47.84626,-54.09684
2023-06-21 01:29:00+00:00,348.9597,6.08,12.73,47.84626,-54.09684
2023-06-21 01:39:00+00:00,352.2979,5.8,12.73,47.84626,-54.09684
2023-06-21 01:49:00+00:00,351.4813,5.72,12.73,47.84626,-54.09684
2023-06-21 01:59:00+00:00,349.2964,5.9,12.73,47.84626,-54.09684
2023-06-21 02:09:00+00:00,350.3563,5.89,12.73,47.84626,-54.09684
2023-06-21 02:19:00+00:00,351.4562,5.7,12.73,47.84626,-54.09684
2023-06-21 02:29:00+00:00,347.8896,5.6,12.73,47.84626,-54.09684
2023-06-21 02:39:00+00:00,345.2595,5.46,12.73,47.84626,-54.09684
2023-06-21 02:49:00+00:00,346.0647,5.92,12.73,47.84626,-54.09684
2023-06-21 02:59:00+00:00,341.6563,5.5,12.73,47.84626,-54.09684
2023-06-21 03:09:00+00:00,334.588,5.47,12.73,47.84626,-54.09684
2023-06-21 03:19:00+00:00,331.1711,5.4,12.65,47.84626,-54.09684
2023-06-21 03:29:00+00:00,328.9363,5.4,12.65,47.84626,-54.09684
2023-06-21 03:39:00+00:00,322.5679,5.4,12.65,47.84626,-54.09684
2023-06-21 03:49:00+00:00,314.6364,5.36,12.65,47.84626,-54.09684
2023-06-21 03:59:00+00:00,313.138,5.3,12.65,47.84626,-54.09684
2023-06-21 04:09:00+00:00,308.713,5.3,12.65,47.84626,-54.09684
2023-06-21 04:19:00+00:00,300.563,5.3,12.65,47.84626,-54.09684
2023-06-21 04:29:00+00:00,289.8363,5.3,12.65,47.84626,-54.09684
2023-06-21 04:39:00+00:00,281.8163,5.3,12.65,47.84626,-54.09684
2023-06-21 04:49:00+00:00,276.0098,5.31,12.65,47.84626,-54.09684
2023-06-21 04:59:00+00:00,267.7014,5.3,12.65,47.84626,-54.09684
2023-06-21 05:09:00+00:00,260.8931,5.32,12.65,47.84626,-54.09684
2023-06-21 05:19:00+00:00,252.6964,5.39,12.65,47.84626,-54.09684
2023-06-21 05:29:00+00:00,245.0264,5.4,12.65,47.84626,-54.09684
2023-06-21 05:39:00+00:00,237.0481,5.4,12.65,47.84626,-54.09684
2023-06-21 05:49:00+00:00,229.2831,5.4,12.65,47.84626,-54.09684
2023-06-21 05:59:00+00:00,220.7198,5.44,12.65,47.84626,-54.09684
2023-06-21 06:09:00+00:00,214.0197,5.46,12.65,47.84626,-54.09684
2023-06-21 06:19:00+00:00,208.4365,5.46,12.57,47.84626,-54.09684
2023-06-21 06:29:00+00:00,202.5964,5.41,12.57,47.84626,-54.09684
2023-06-21 06:39:00+00:00,197.2515,5.4,12.57,47.84626,-54.09684
2023-06-21 06:49:00+00:00,195.3131,5.4,12.57,47.84626,-54.09684
2023-06-21 06:59:00+00:00,193.8398,5.4,12.57,47.84626,-54.09684
2023-06-21 07:09:00+00:00,190.7364,5.4,12.57,47.84626,-54.09684
2023-06-21 07:19:00+00:00,190.8531,5.4,12.57,47.84626,-54.09684
2023-06-21 07:29:00+00:00,195.7231,5.4,12.57,47.84626,-54.09684
2023-06-21 07:39:00+00:00,196.6015,5.28,12.57,47.84626,-54.09684
2023-06-21 07:49:00+00:00,193.9031,5.15,12.57,47.84626,-54.09684
2023-06-21 07:59:00+00:00,195.9964,5.29,12.57,47.84626,-54.09684
2023-06-21 08:09:00+00:00,199.4798,5.26,12.57,47.84626,-54.09684
2023-06-21 08:19:00+00:00,200.2948,5.23,12.57,47.84626,-54.09684
2023-06-21 08:29:00+00:00,202.3448,5.21,12.57,47.84626,-54.09684
2023-06-21 08:39:00+00:00,206.5381,5.1,12.57,47.84626,-54.09684
2023-06-21 08:49:00+00:00,208.1263,5.09,12.57,47.84626,-54.09684
2023-06-21 08:59:00+00:00,209.1097,5.1,12.57,47.84626,-54.09684
2023-06-21 09:09:00+00:00,211.4798,5.1,12.57,47.84626,-54.09684
2023-06-21 09:19:00+00:00,214.2131,5.1,12.57,47.84626,-54.09684
2023-06-21 09:29:00+00:00,216.7297,5.09,12.57,47.84626,-54.09684
2023-06-21 09:39:00+00:00,218.8331,5.1,12.57,47.84626,-54.09684
2023-06-21 09:49:00+00:00,222.2231,5.1,12.57,47.84626,-54.09684
2023-06-21 09:59:00+00:00,224.8865,5.0,12.57,47.84626,-54.09684
2023-06-21 10:09:00+00:00,227.5115,4.91,12.57,47.84626,-54.09684
2023-06-21 10:19:00+00:00,233.588,4.9,13.05,47.84626,-54.09684
2023-06-21 10:29:00+00:00,240.7681,4.9,13.05,47.84626,-54.09684
2023-06-21 10:39:00+00:00,246.5731,4.9,13.05,47.84626,-54.09684
2023-06-21 10:49:00+00:00,253.6231,4.9,13.05,47.84626,-54.09684
2023-06-21 10:59:00+00:00,260.4798,4.87,13.05,47.84626,-54.09684
2023-06-21 11:09:00+00:00,262.7198,4.87,13.05,47.84626,-54.09684
2023-06-21 11:19:00+00:00,267.8014,4.8,14.08,47.84626,-54.09684
2023-06-21 11:29:00+00:00,274.5664,4.8,14.08,47.84626,-54.09684
2023-06-21 11:39:00+00:00,280.0231,4.8,14.08,47.84626,-54.09684
2023-06-21 11:49:00+00:00,281.4364,4.8,14.08,47.84626,-54.09684
2023-06-21 11:59:00+00:00,288.0547,4.8,14.08,47.84626,-54.09684
2023-06-21 12:09:00+00:00,295.298,4.8,14.08,47.84626,-54.09684
2023-06-21 12:19:00+00:00,300.0814,4.8,14.16,47.84626,-54.09684
2023-06-21 12:29:00+00:00,302.1397,4.8,14.16,47.84626,-54.09684
2023-06-21 12:39:00+00:00,307.1846,4.8,14.16,47.84626,-54.09684
2023-06-21 12:49:00+00:00,309.8014,4.8,14.16,47.84626,-54.09684
2023-06-21 12:59:00+00:00,309.733,4.8,14.16,47.84626,-54.09684
2023-06-21 13:09:00+00:00,306.4781,4.8,14.16,47.84626,-54.09684
2023-06-21 13:19:00+00:00,307.9915,4.7,14.24,47.84626,-54.09684
2023-06-21 13:29:00+00:00,308.3213,4.6,14.24,47.84626,-54.09684
2023-06-21 13:39:00+00:00,306.9064,4.65,14.24,47.84626,-54.09684
2023-06-21 13:49:00+00:00,308.1364,4.7,14.24,47.84626,-54.09684
2023-06-21 13:59:00+00:00,311.4315,4.6,14.24,47.84626,-54.09684
2023-06-21 14:09:00+00:00,310.3046,4.6,14.24,47.84626,-54.09684
2023-06-21 14:19:01+00:00,308.5281,4.6,14.16,47.84626,-54.09684
2023-06-21 14:29:01+00:00,310.3864,4.67,14.16,47.84626,-54.09684
2023-06-21 14:39:01+00:00,307.0413,4.7,14.16,47.84626,-54.09684
2023-06-21 14:49:01+00:00,302.4697,4.76,14.16,47.84626,-54.09684
2023-06-21 14:59:01+00:00,302.3897,4.8,14.16,47.84626,-54.09684
2023-06-21 15:09:01+00:00,301.308,4.8,14.16,47.84626,-54.09684
2023-06-21 15:19:00+00:00,294.7564,4.8,14.08,47.84626,-54.09684
2023-06-21 15:29:00+00:00,290.1214,4.8,14.08,47.84626,-54.09684
2023-06-21 15:39:00+00:00,289.3713,4.75,14.08,47.84626,-54.09684
2023-06-21 15:49:00+00:00,285.1347,4.69,14.08,47.84626,-54.09684
2023-06-21 15:59:00+00:00,279.9664,4.68,14.08,47.84626,-54.09684
2023-06-21 16:09:00+00:00,276.7014,4.7,14.08,47.84626,-54.09684
2023-06-21 16:19:00+00:00,274.0981,4.7,14.0,47.84626,-54.09684
2023-06-21 16:29:00+00:00,265.888,4.7,14.0,47.84626,-54.09684
2023-06-21 16:39:00+00:00,261.1364,4.7,14.0,47.84626,-54.09684
2023-06-21 16:49:00+00:00,257.3048,4.69,14.0,47.84626,-54.09684
2023-06-21 16:59:00+00:00,252.6631,4.69,14.0,47.84626,-54.09684
2023-06-21 17:09:00+00:00,242.4514,4.7,14.0,47.84626,-54.09684
2023-06-21 17:19:00+00:00,234.8948,4.78,13.84,47.84626,-54.09684
2023-06-21 17:29:00+00:00,229.4981,4.8,13.84,47.84626,-54.09684
2023-06-21 17:39:00+00:00,224.7448,4.8,13.84,47.84626,-54.09684
2023-06-21 17:49:00+00:00,219.1198,4.79,13.84,47.84626,-54.09684
2023-06-21 17:59:00+00:00,212.7248,4.8,13.84,47.84626,-54.09684
2023-06-21 18:09:00+00:00,207.5098,4.8,13.84,47.84626,-54.09684
2023-06-21 18:19:00+00:00,203.9865,4.8,13.68,47.84626,-54.09684
2023-06-21 18:29:00+00:00,200.3198,4.8,13.68,47.84626,-54.09684
2023-06-21 18:39:00+00:00,196.3297,4.8,13.68,47.84626,-54.09684
2023-06-21 18:49:00+00:00,195.0131,4.8,13.68,47.84626,-54.09684
2023-06-21 18:59:00+00:00,190.6481,4.8,13.68,47.84626,-54.09684
2023-06-21 19:09:00+00:00,185.7081,4.76,13.68,47.84626,-54.09684
2023-06-21 19:19:00+00:00,186.7032,4.7,13.6,47.84626,-54.09684
2023-06-21 19:29:00+00:00,186.8448,4.7,13.6,47.84626,-54.09684
2023-06-21 19:39:00+00:00,184.5465,4.69,13.6,47.84626,-54.09684
2023-06-21 19:49:00+00:00,190.0331,4.67,13.6,47.84626,-54.09684
2023-06-21 19:59:00+00:00,195.0831,4.61,13.6,47.84626,-54.09684
2023-06-21 20:09:00+00:00,192.2031,4.67,13.6,47.84626,-54.09684
2023-06-21 20:19:00+00:00,194.2881,4.7,13.53,47.84626,-54.09684
2023-06-21 20:29:00+00:00,201.1915,4.7,13.53,47.84626,-54.09684
2023-06-21 20:39:00+00:00,203.0614,4.68,13.53,47.84626,-54.09684
2023-06-21 20:49:00+00:00,203.5931,4.66,13.53,47.84626,-54.09684
2023-06-21 20:59:00+00:00,210.8331,4.69,13.53,47.84626,-54.09684
2023-06-21 21:09:00+00:00,217.7798,4.76,13.53,47.84626,-54.09684
2023-06-21 21:19:00+00:00,218.6281,4.9,13.44,47.84626,-54.09684
2023-06-21 21:29:00+00:00,224.1564,5.02,13.44,47.84626,-54.09684
2023-06-21 21:39:00+00:00,231.8081,5.15,13.44,47.84626,-54.09684
2023-06-21 21:49:00+00:00,235.2997,5.23,13.44,47.84626,-54.09684
2023-06-21 21:59:00+00:00,235.8897,5.3,13.44,47.84626,-54.09684
2023-06-21 22:09:00+00:00,237.4098,5.3,13.44,47.84626,-54.09684
2023-06-21 22:19:00+00:00,242.9281,5.34,13.29,47.84626,-54.09684
2023-06-21 22:29:00+00:00,247.6164,5.35,13.29,47.84626,-54.09684
2023-06-21 22:39:00+00:00,250.0748,5.34,13.29,47.84626,-54.09684
2023-06-21 22:49:00+00:00,251.1031,5.34,13.29,47.84626,-54.09684
2023-06-21 22:59:00+00:00,255.8664,5.31,13.29,47.84626,-54.09684
2023-06-21 23:09:00+00:00,261.6664,5.3,13.29,47.84626,-54.09684
2023-06-21 23:19:00+00:00,266.2631,5.3,13.13,47.84626,-54.09684
2023-06-21 23:29:00+00:00,269.7897,5.3,13.13,47.84626,-54.09684
2023-06-21 23:39:00+00:00,278.0447,5.3,13.13,47.84626,-54.09684
2023-06-21 23:49:00+00:00,288.4414,5.3,13.13,47.84626,-54.09684
2023-06-21 23:59:00+00:00,294.8231,5.33,13.13,47.84626,-54.09684
